SCP
0 0 0 0 0 0 0 0 0 0 0 0 0 0 0 0 0 0 0 0 0 0 0 0 0 0 0 0 0 0 0 0 0 0 0 0 0 0 0 0 0 0 -0 0
0 0 0 0 0 0 0 0 0 0 0 0 0 0 0 0 0 0 0 0 0 0 0 0 0 0 0 0 0 0 0 0 0 0 0 0 0 0 0 0 0 0 0 0
0 0 0 0 0 0 0 0 0 0 0 0 0 0 0 0 0 0 0 0 0 0 0 0 0 0 0 0 0 0 0 0 0 0 0 0 0 0 0 0 0 0 0 0
0 0 0 0 0 0 0 0 0 0 0 0 0 0 0 0 0 0 0 0 0 0 0 0 0 0 0 0 0 0 0 0 0 0 0 0 0 0 0 0 0 0 0 0
0 0 0 0 0 0 0 0 0 0 0 0 0 0 0 0 0 0 0 0 0 0 0 0 0 0 0 0 0 0 0 0 0 0 0 0 0 0 0 0 0 0 0 0
0 0 0 0 0 0 0 0 0 0 0 0 0 0 0 0 0 0 0 0 0 0 0 0 0 0 0 0 0 0 0 0 0 0 0 0 0 0 0 0 0 0 0 0
0 0 0 0 0 0 0 0 0 0 0 0 0 0 0 0 0 0 0 0 0 0 0 0 0 0 0 0 0 0 0 0 0 0 0 0 0 0 0 0 0 0 0 0
0 0 0 0 0 0 0 0 0 0 0 0 0 0 0 0 0 0 0 0 0 0 0 0 0 0 0 0 0 0 0 0 0 0 0 0 0 0 0 0 0 0 0 0
0 0 0 0 0 0 0 0 0 0 0 0 0 0 0 0 0 0 0 0 0 0 0 0 0 0 0 0 0 0 0 0 0 0 0 0 0 0 0 0 0 0 0 0
0 0 0 0 0 0 0 0 0 0 0 0 0 0 0 0 0 0 0 0 0 0 0 0 0 0 0 0 0 0 0 0 0 0 0 0 0 0 0 0 0 0 0 0
0 0 0 0 0 0 0 0 0 0 0 0 0 0 0 0 0 0 0 0 0 0 0 0 0 0 0 0 0 0 0 0 0 0 0 0 0 0 0 0 0 0 0 0
0 0 0 0 0 0 0 0 0 0 0 0 0 0 0 0 0 0 0 0 0 0 0 0 0 0 0 0 0 0 0 0 0 0 0 0 0 0 0 0 0 0 0 0
0 0 0 0 0 0 0 0 0 0 0 0 0 0 0 0 0 0 0 0 0 0 0 0 0 0 0 0 0 0 0 0 0 0 0 0 0 0 0 0 0 0 0 0
0 0 0 0 0 0 0 0 0 0 0 0 0 0 0 0 0 0 0 0 0 0 0 0 0 0 0 0 0 0 0 0 0 0 0 0 0 0 0 0 0 0 0 0
0 0 0 0 0 0 0 0 0 0 0 0 0 0 0 0 0 0 0 0 0 0 0 0 0 0 0 0 0 0 0 0 0 0 0 0 0 0 0 0 0 0 0 0
0 0 0 0 0 0 0 0 0 0 0 0 0 0 0 0 0 0 0 0 0 0 0 0 0 0 0 0 0 0 0 0 0 0 0 0 0 0 0 0 0 0 0 0
0 0 0 0 0 0 0 0 0 0 0 0 0 0 0 0 0 0 0 0 0 0 0 0 0 0 0 0 0 0 0 0 0 0 0 0 0 0 0 0 0 0 0 0
0 0 0 0 0 0 0 0 0 0 0 0 0 0 0 0 0 0 0 0 0 0 0 0 0 0 0 0 0 0 0 0 0 0 0 0 0 0 0 0 0 0 0 0
0 0 0 0 0 0 0 0 0 0 0 0 0 0 0 0 0 0 0 0 0 0 0 0 0 0 0 0 0 0 0 0 0 0 0 0 0 0 0 0 0 0 0 0
0 0 0 0 0 0 0 0 0 0 0 0 0 0 0 0 0 0 0 0 0 0 0 0 0 0 0 0 0 0 0 0 0 0 0 0 0 0 0 0 0 0 0 0
0 0 0 0 0 0 0 0 0 0 0 0 0 0 0 0 0 0 0 0 0 0 0 0 0 0 0 0 0 0 0 0 0 0 0 0 0 0 0 0 0 0 0 0
0 0 0 0 0 0 0 0 0 0 0 0 0 0 0 0 0 0 0 0 0 0 0 0 0 0 0 0 0 0 0 0 0 0 0 0 0 0 0 0 0 0 0 0
0 0 0 0 0 0 0 0 0 0 0 0 0 0 0 0 0 0 0 0 0 0 0 0 0 0 0 0 0 0 0 0 0 0 0 0 0 0 0 0 0 0 0 0
0 0 0 0 0 0 0 0 0 0 0 0 0 0 0 0 0 0 0 0 0 0 0 0 0 0 0 0 0 0 0 0 0 0 0 0 0 0 0 0 0 0 0 0
0 0 0 0 0 0 0 0 0 0 0 0 0 0 0 0 0 0 0 0 0 0 0 0 0 0 0 0 0 0 0 0 0 0 0 0 0 0 0 0 0 0 0 0
0 0 0 0 0 0 0 0 0 0 0 0 0 0 0 0 0 0 0 0 0 0 0 0 0 0 0 0 0 0 0 0 0 0 0 0 0 0 0 0 0 0 0 0
Wind_Speed
1 4 3 5 5 6 6 4 3 3 4 4 5 5 8 8 8 8 7 7 7 7 5 5 6 6 6 6 6 6 6 4 4 3 3 2 2 2 2 2 3 4 4 4
3 2 7 4 4 4 4 3 2 1 3 4 4 4 6 7 9 11 11 9 8 6 4 5 6 5 6 6 6 6 6 5 4 3 2 2 2 1 1 1 3 3 4 4
5 5 5 4 4 4 3 4 4 3 0 1 4 1 3 4 5 7 9 9 9 10 9 7 7 6 6 7 7 7 6 6 5 4 3 3 3 3 2 2 2 2 3 4
3 4 3 5 4 4 3 5 5 4 3 2 3 2 6 6 6 8 9 9 10 9 9 8 8 7 7 7 7 7 6 6 5 5 4 4 3 2 1 1 0 2 2 3
3 4 5 5 6 5 5 5 3 3 3 0 1 2 6 3 7 10 11 12 12 11 11 10 9 9 8 7 7 7 7 6 5 5 5 5 3 2 1 1 2 2 2 2
3 3 4 5 4 4 4 3 4 4 3 2 4 4 5 6 12 11 12 12 12 12 11 9 8 7 6 6 6 6 6 5 5 5 5 5 5 4 3 2 2 1 1 2
2 2 2 3 2 1 5 6 3 2 2 5 3 3 8 9 10 13 14 13 12 12 11 9 9 8 8 8 7 7 7 5 5 5 5 5 5 5 5 4 3 2 1 1
3 3 3 3 5 5 4 8 7 4 4 4 1 4 7 6 7 9 10 11 11 12 11 11 11 10 10 9 8 8 7 6 5 6 5 5 5 3 3 4 3 3 2 2
5 5 4 3 3 7 4 3 6 6 1 1 3 4 5 2 2 5 7 9 11 12 12 12 11 10 10 10 9 9 9 7 6 6 5 4 4 4 4 4 3 2 2 2
6 3 3 2 3 1 6 6 5 4 3 2 3 3 4 3 2 5 8 10 11 11 11 10 10 10 10 9 9 9 8 8 6 6 5 5 5 4 5 4 4 4 3 3
4 4 1 0 3 5 2 2 4 4 4 4 2 6 5 6 5 6 8 9 10 11 12 11 10 9 9 8 8 7 7 7 6 6 5 5 4 4 5 5 5 4 4 4
4 5 3 5 5 5 5 5 6 5 2 3 3 7 4 4 4 5 6 7 8 10 11 11 10 9 8 8 7 7 7 7 7 6 5 5 4 4 5 5 5 4 5 4
5 6 3 3 4 1 2 3 4 5 4 3 3 6 4 1 2 3 5 6 6 7 7 8 9 9 9 9 8 7 8 8 7 6 6 5 5 5 5 5 5 5 4 3
6 5 6 8 7 4 4 4 5 6 4 4 6 6 4 2 3 3 5 6 7 7 7 8 8 8 9 9 9 8 8 7 7 6 7 6 6 6 6 5 5 5 5 5
5 4 5 6 5 4 5 5 6 6 7 7 7 7 7 7 7 7 7 7 6 6 7 9 9 8 8 7 7 8 7 7 7 7 7 7 6 5 5 5 4 4 5 5
3 3 2 2 3 4 4 6 6 6 6 6 4 5 6 5 4 4 6 7 7 7 8 9 8 8 8 9 8 8 7 7 7 7 7 6 6 6 6 5 5 5 4 4
3 4 3 2 2 1 4 7 7 6 6 7 7 8 4 4 6 8 8 8 9 9 8 9 9 9 9 9 9 9 8 7 7 6 6 5 6 6 6 6 5 5 5 4
6 4 3 2 1 4 9 5 7 7 6 7 6 6 7 8 8 6 7 9 9 8 8 8 8 8 7 7 7 7 7 7 7 7 6 6 6 6 6 5 6 5 4 4
6 6 4 3 3 5 6 4 6 6 4 5 6 6 5 4 3 0 4 7 9 9 9 8 8 8 7 7 7 7 7 7 7 7 7 7 7 7 7 7 6 5 4 4
3 5 5 4 4 6 7 5 3 5 4 5 6 6 5 5 4 5 5 5 6 6 6 6 6 6 6 6 7 8 7 7 8 9 8 7 7 8 8 8 6 4 5 5
1 2 4 4 4 7 7 3 3 4 8 5 6 7 7 7 7 6 5 5 6 5 5 5 6 6 7 7 7 8 8 9 9 8 7 7 7 7 7 6 5 5 5 4
4 3 3 4 4 7 4 2 5 7 3 3 5 5 5 5 4 4 5 5 5 5 5 5 6 5 5 6 8 7 8 7 6 7 7 7 6 6 5 5 5 5 5 5
4 6 5 6 6 5 2 3 3 2 2 2 3 3 5 6 5 5 5 5 5 5 5 5 5 5 4 5 7 8 6 5 6 7 6 6 5 5 5 6 6 4 4 4
3 1 2 1 4 4 3 1 1 1 2 2 3 4 6 6 6 6 5 4 4 4 4 4 5 5 4 4 5 5 5 6 7 7 6 5 5 5 4 4 5 5 4 4
4 1 1 2 3 3 4 2 1 1 2 2 2 3 6 7 6 5 5 4 4 3 3 5 5 5 5 4 4 4 5 7 7 6 6 5 5 5 5 4 4 5 5 6
3 4 4 5 5 3 5 4 2 1 0 2 2 2 2 5 6 5 4 4 4 3 3 4 4 4 4 4 4 4 5 6 7 5 5 4 4 4 4 3 2 1 2 4
Wind_Direction
67 94 175 205 192 171 161 160 186 220 184 152 174 186 193 193 179 181 187 188 186 191 190 167 163 152 142 137 135 139 133 130 118 103 97 89 70 46 45 48 57 61 59 62
57 224 217 201 180 155 152 164 205 242 184 158 177 205 202 190 189 185 186 191 190 188 183 176 166 158 154 152 148 149 146 142 135 133 136 134 129 100 65 37 45 53 59 58
183 228 207 182 166 154 175 187 204 193 225 55 128 266 226 225 204 195 195 193 190 186 183 180 171 167 163 161 162 162 160 149 143 136 110 84 63 46 34 29 22 26 59 64
224 229 182 174 188 170 204 208 192 172 131 234 163 223 252 214 212 206 203 197 193 191 185 183 177 172 173 174 166 157 159 154 149 139 129 131 133 146 190 179 80 31 49 62
226 184 171 187 205 181 195 197 169 167 149 290 216 177 271 198 215 219 207 200 194 191 186 185 182 176 174 168 160 159 156 153 153 144 140 137 144 165 153 114 91 56 35 45
227 213 183 197 208 179 144 85 46 48 76 285 227 180 262 212 212 209 205 201 194 189 188 186 180 164 162 157 151 154 154 158 159 151 147 150 153 153 140 135 133 98 33 33
298 278 236 156 135 109 103 96 58 14 8 260 229 175 246 231 213 201 198 196 191 186 184 180 174 171 168 165 164 161 159 166 170 163 166 167 165 163 164 166 164 156 127 78
175 260 234 184 170 174 167 141 155 180 210 274 282 221 254 249 213 195 189 183 179 181 182 182 182 178 176 173 170 168 169 174 176 173 179 178 172 167 168 166 163 165 168 176
173 238 255 203 161 142 146 176 169 141 187 259 279 282 307 1 139 172 174 173 181 183 185 184 182 180 179 177 177 177 177 178 181 181 178 180 180 174 169 166 161 163 166 159
155 193 258 236 88 118 157 155 110 126 160 233 287 264 247 265 210 179 178 184 188 184 183 182 182 183 183 180 179 177 177 180 182 179 179 180 183 179 167 154 158 160 158 147
138 148 266 53 180 195 150 139 132 135 156 157 233 268 231 211 198 183 188 186 183 181 181 181 183 184 180 177 175 178 180 177 178 180 178 171 176 170 160 161 170 165 153 153
151 131 194 238 250 202 173 178 150 148 201 165 178 268 277 198 188 177 185 184 180 178 178 179 178 173 172 177 180 183 184 182 184 179 171 174 176 164 162 170 176 169 164 167
140 119 116 331 321 300 197 190 162 140 134 160 175 263 303 162 169 180 172 171 171 168 167 170 171 174 179 182 182 182 185 187 187 175 173 176 175 173 176 178 175 170 167 165
126 131 166 192 207 199 209 211 166 139 161 197 212 233 271 210 187 190 174 170 166 163 163 165 175 183 185 185 184 184 187 186 182 176 176 181 187 187 183 177 171 168 165 162
112 159 198 215 215 194 210 211 196 182 182 188 217 210 225 212 199 192 176 165 160 163 166 172 178 182 183 183 186 186 189 187 181 177 182 191 188 183 175 169 169 167 164 165
110 165 195 229 221 211 229 223 212 211 197 200 204 234 234 213 181 176 173 167 171 177 181 181 180 178 182 187 189 187 189 188 177 179 188 186 177 177 178 173 166 160 161 161
158 147 140 231 260 57 252 221 202 203 202 185 203 226 207 176 184 185 180 179 184 187 186 183 184 185 188 188 184 183 185 174 170 176 180 179 177 179 182 171 161 165 168 160
160 148 147 171 108 225 242 228 193 197 220 202 198 207 194 193 195 189 181 182 189 187 183 185 186 186 186 181 178 178 171 169 173 175 177 177 178 181 176 168 174 177 167 163
168 153 144 146 186 258 280 242 183 176 238 223 196 205 198 176 111 306 207 186 187 187 185 186 187 182 176 175 173 166 170 174 177 182 186 186 181 178 175 177 182 176 166 167
127 131 138 146 170 223 243 248 187 129 244 246 195 187 180 132 142 235 218 182 181 181 177 177 175 164 167 178 167 165 176 179 188 192 191 187 181 181 183 184 179 170 167 175
96 104 154 167 199 249 254 254 120 163 227 222 191 180 168 174 194 205 176 165 166 167 167 160 156 163 177 173 163 171 179 194 198 187 179 180 182 183 182 178 173 166 165 161
169 167 183 160 192 244 268 142 173 211 219 183 179 172 166 170 164 155 154 154 146 145 147 145 147 160 168 163 164 173 192 197 175 165 167 174 177 178 169 162 166 165 161 162
186 190 187 189 214 250 257 204 218 168 153 171 165 172 151 144 149 148 154 153 148 146 146 145 144 147 158 168 170 181 195 167 153 157 167 171 169 170 162 163 163 158 164 169
268 149 137 243 270 291 300 328 5 135 159 185 164 164 149 150 154 149 149 149 146 146 146 141 138 143 159 173 175 181 169 156 155 162 168 167 165 166 162 163 164 163 171 175
236 150 124 247 272 332 322 317 314 7 67 90 108 149 160 146 148 154 157 158 158 154 151 147 154 163 173 170 168 158 152 149 157 164 167 168 170 170 169 170 177 179 190 185
224 187 179 223 230 210 252 273 285 23 54 133 119 118 140 143 148 149 156 159 152 151 148 148 154 161 168 163 159 155 155 153 154 160 168 171 168 166 163 160 146 171 180 186